www.pogodaiklimat.ru

Погода и климат >> Архив погоды >> Россия >> Красноярский край >> Сопочная Карга


ПОГОДА в Сопочной Карге

  • Прогноз погоды в Сопочной Карге
  • Монитор погоды в Сопочной Карге

АРХИВ ПОГОДЫ в Сопочной Карге

Время (UTC), дата Ветер
(напр.,м/с)
 
Видим.   Явления Облачность Т
(С)
Тd
(С)
f
(%)
Тe
(С)
Тes
(С)
Комфортность P
(гПа)
Po
(гПа)
Тmin
(С)
Tmax
(С)
R
(мм)
R24
(мм)
S
(см)
06 9.01 В 2 20 км 3/0
[Ac trans]
-37.4 -41.5 65 -46 -46 опасность
обморожения
1003.1 1002.3
09 9.01 В 2 20 км 4/0
[Ac trans]
-37.4 -41.5 65 -46 -46 опасность
обморожения
1004.0 1003.2
12 9.01 СВ 3 20 км ясно -38.5 -42.7 64 -50 -50 опасность
обморожения
1004.5 1003.7 -36.0
15 9.01 СВ 2 20 км 5/0
[Ac trans]
-37.5 -41.8 64 -46 -46 опасность
обморожения
1004.9 1004.1
18 9.01 СВ 2 20 км 3/0
[Ac trans]
-37.6 -41.8 65 -46 -46 опасность
обморожения
1005.0 1004.2
21 9.01 СВ 2 20 км 8/0
[Ac trans]
-37.0 -41.1 65 -46 -46 опасность
обморожения
1005.4 1004.6
00 10.01 В 4 20 км 8/0
[Ac trans]
-36.7 -41.1 64 -49 -49 опасность
обморожения
1005.9 1005.1 -38.8 38
03 10.01 СВ 3 20 км 3/0
[Ac trans]
-37.9 -42.3 63 -49 -49 опасность
обморожения
1006.3 1005.5
06 10.01 СВ 3 20 км 9/0
[Ac trans Ci fib]
-38.8 -43.1 64 -50 -50 опасность
обморожения
1006.7 1005.9
09 10.01 СВ 2 20 км 5/0
[Ac trans Ci fib]
-39.4 -43.5 65 -48 -48 опасность
обморожения
1007.6 1006.8
12 10.01 СВ 3 20 км 3/0
[Ac trans]
-40.8 -45.8 58 -53 -53 опасность
обморожения
1008.7 1007.9 -36.7
15 10.01 В 1 20 км ясно -40.0 -44.1 65 -45 -45 опасность
обморожения
1009.2 1008.4
18 10.01 СВ 1 20 км 4/0
[Ac trans Ci fib]
-40.1 -44.1 65 -45 -45 опасность
обморожения
1010.3 1009.5
21 10.01 СВ 1 20 км 4/0
[Ci fib]
-41.3 -45.8 61 -47 -47 опасность
обморожения
1011.2 1010.4
00 11.01 штиль 0 20 км ясно -40.3 -44.5 64 -40 -40 опасность
обморожения
1012.4 1011.6 -41.7 38
03 11.01 штиль 0 20 км ясно -40.4 -44.5 65 -40 -40 опасность
обморожения
1013.8 1013.0
06 11.01 штиль 0 20 км 3/0
[Ci fib]
-40.1 -44.1 65 -40 -40 опасность
обморожения
1014.6 1013.8
09 11.01 СВ 1 20 км 1/0
[Ci fib]
-41.2 -45.8 61 -47 -47 опасность
обморожения
1016.0 1015.2
12 11.01 СВ 1 20 км ясно -41.3 -45.8 61 -47 -47 опасность
обморожения
1017.4 1016.6 -39.7
15 11.01 штиль 0 20 км ясно -40.5 -44.5 65 -41 -41 опасность
обморожения
1017.8 1017.0
18 11.01 ЮВ 1 20 км ясно -40.3 -44.5 64 -46 -46 опасность
обморожения
1018.4 1017.6
21 11.01 В 2 20 км ясно -40.6 -45.3 60 -50 -50 опасность
обморожения
1019.2 1018.4
00 12.01 В 4 20 км ясно -40.1 -44.1 65 -54 -54 опасность
обморожения
1019.2 1018.4 -41.4 38
03 12.01 ЮВ 3 20 км ясно -39.4 -43.5 65 -51 -51 опасность
обморожения
1019.6 1018.8
06 12.01 ЮВ 3 20 км ясно -39.4 -43.5 65 -51 -51 опасность
обморожения
1019.8 1019.0
09 12.01 ЮВ 5 20 км 5/0
[Ac trans Ci fib]
-39.0 -43.1 65 -54 -54 опасность
обморожения
1019.4 1018.6
12 12.01 ЮВ 6 20 км позёмок 6/0
[Ac trans]
-37.1 -41.5 63 -53 -53 опасность
обморожения
1018.4 1017.6 -37.1
15 12.01 ЮВ 7
{10}
20 км позёмок 8/0
[Ac trans]
-32.9 -36.1 73 -48 -48 опасность
обморожения
1016.5 1015.7
18 12.01 ЮВ 11-13
{14}
2000 м метель 10/0
[Ac und]
-31.9 -35.0 74 -50 -50 опасность
обморожения
1014.3 1013.5
21 12.01 Ю 13-17
{18}
200 м сильная метель ?/? -29.1 -32.2 74 -47 -47 опасность
обморожения
1012.2 1011.4
00 13.01 Ю 13-16
{18}
200 м сильная метель ?/? -28.1 -31.1 75 -46 -46 опасность
обморожения
1010.2 1009.4 -37.1 1 38
03 13.01 ЮВ 13-17
{18}
200 м сильная метель ?/? -28.0 -31.1 75 -46 -46 опасность
обморожения
1008.4 1007.6
06 13.01 ЮВ 13-17
{18}
200 м сильная метель ?/? -26.5 -29.0 79 -44 -44 опасность
обморожения
1007.1 1006.3
09 13.01 Ю 13-17
{18}
200 м сильная метель ?/? -24.4 -26.9 80 -41 -41 опасность
обморожения
1005.5 1004.8
12 13.01 ЮВ 13-17
{17}
200 м сильная метель ?/? -22.6 -25.1 80 -39 -39 опасность
обморожения
1005.0 1004.3 -22.6 2
15 13.01 ЮВ 9-11
{17}
4000 м слаб. снег {метель} 10/0
[Ac As]
-21.6 -23.4 85 -35 -35 опасность
обморожения
1004.5 1003.8
18 13.01 Ю 8-10
{15}
4000 м слаб. снег {метель} 10/0
[Ac As]
-20.6 -22.5 85 -33 -33 опасность
обморожения
1004.3 1003.6
21 13.01 Ю 12-15
{16}
1000 м слаб. снег {метель} 10/0
[Ac As]
-20.0 -21.9 85 -35 -35 опасность
обморожения
1003.5 1002.8
00 14.01 Ю 12-14
{16}
2000 м слаб. снег {метель} 10/0
[Ac As]
-20.1 -22.0 85 -35 -35 опасность
обморожения
1003.5 1002.8 -22.6 1 38
03 14.01 Ю 12-15
{15}
4000 м слаб. снег {метель} 10/0
[Ac As]
-19.4 -21.3 85 -34 -34 опасность
обморожения
1003.9 1003.2
06 14.01 Ю 11-13
{16}
1000 м слаб. снег {метель} 10/0
[Ac As]
-19.6 -21.5 85 -34 -34 опасность
обморожения
1004.4 1003.7
09 14.01 Ю 11-13
{16}
1000 м слаб. снег {метель} 10/0
[Ac As]
-19.6 -21.5 85 -34 -34 опасность
обморожения
1004.4 1003.7
12 14.01 Ю 11-13
{15}
2000 м слаб. снег {метель} 10/0
[Ac As]
-18.8 -20.7 85 -33 -33 опасность
обморожения
1004.3 1003.6 -18.8 1
15 14.01 ЮВ 8-10
{14}
4000 м слаб. снег {метель} 10/0
[Ac As]
-17.8 -19.7 85 -30 -30 1003.6 1002.9
18 14.01 ЮВ 7
{11}
4000 м слаб. снег {метель} 10/0
[Ac As]
-16.6 -17.9 90 -27 -27 1002.7 1002.0
21 14.01 ЮВ 6 4000 м слаб. снег {метель} 10/0
[Ac As]
-15.5 -16.8 90 -25 -25 1001.1 1000.4
00 15.01 ЮВ 6 4000 м слаб. снег {метель} 10/0
[Ac As]
-14.6 -15.9 90 -24 -24 999.9 999.2 -18.8 1 38
06 15.01 Ю 7
{10}
4000 м слаб. снег {метель} 10/0
[Ac As]
-12.9 -14.2 90 -23 -23 998.9 998.2
09 15.01 Ю 3 20 км {снег, метель} 3/0
[Ac trans Ci fib]
-19.5 -21.4 85 -27 -27 999.2 998.5
12 15.01 Ю 3 20 км {снег, метель} 3/0
[Ac trans Ci fib]
-19.5 -21.4 85 -27 -27 999.2 998.5
15 15.01 В 2 20 км {снег, метель} 8/0
[Ac trans]
-22.5 -25.0 80 -29 -29 998.7 998.0 -12.9 0.8
18 15.01 В 2 20 км 9/0
[Ac trans]
-18.1 -20.0 85 -24 -24 997.9 997.2
21 15.01 В 2 10 км слаб. снег 10/0
[Ac As]
-18.9 -20.8 85 -25 -25 997.3 996.6
00 16.01 В 4 10 км слаб. снег 10/0
[Ac As]
-18.2 -20.1 85 -27 -27 998.0 997.3 -22.5 0.2 38

 

Местоположение метеостанции Сопочная Карга (Красноярский край, Россия): широта 71.87 долгота 82.70 высота над уровнем моря 5 м.

В архиве по умолчанию представлена погода в Сопочной Карге за последнюю неделю. Архивные данные за месяц целиком и за предыдущие месяцы, начиная с января 2011 года, Вы можете получить, выбрав интересующий диапазон дат из раскрывающегося списка и нажав кнопку "Ввод!".


*Определитесь, кто Вы:
робот инопланетянин человек

Внимание! Время в таблицах - всемирное. Для получения местного времени необходимо прибавить поправку, которая равна 7 ч.

Смотрите также архив погоды в соседних городах и на ближайших метеорологических станциях:

Погода в Гыде (Ямало-Ненецкий АО, Россия) (186 км)
Погода на Острове Диксон (Красноярский край, Россия) (199 км)
Погода в Карауле (Красноярский край, Россия) (200 км)
Погода в Крестах Таймырских (Красноярский край, Россия) (279 км)
Погода в Норильске (Красноярский край, Россия) (350 км)
Погода в Антипаюте (Ямало-Ненецкий АО, Россия) (379 км)
Погода в Потапово (Красноярский край, Россия) (380 км)
Погода в Тамбее (Ямало-Ненецкий АО, Россия) (382 км)
Погода в Сеяхе (Ямало-Ненецкий АО, Россия) (413 км)
Погода в Волочанке (Красноярский край, Россия) (429 км)

Пояснения к столбцам:

Ветер - указаны скорость ветра в м/с - средняя за 10 мин, порывы в срок и между сроками (в фигурных скобках) и направление, откуда дует ветер: С - северный, СВ - северо-восточный, В - восточный, ЮВ - юго-восточный, Ю - южный, ЮЗ - юго-западный, З - западный, СЗ - северо-западный.
Видимость - горизонтальная дальность видимости в метрах или километрах. При видимости от 1 до 10 км при отсутствии осадков обычно наблюдается дымка, при ухудшении видимости до 1 км и менее - туман. В сухую погоду видимость может ухудшаться дымом, пылью или мглою.
Явления - указаны атмосферные явления, наблюдавшиеся в срок или в последний час перед сроком; фигурными скобками обозначены явления, наблюдавшиеся между сроками (за 1-3 часа до срока); квадратными скобками обозначены град или гололедные отложения с указанием их диаметра в мм.
Облачность - указаны через наклонную черту общая и нижняя облачность в баллах и высота нижней границы облаков в метрах; квадратными скобками обозначены формы облаков: Ci - перистые, Cs - перисто-слоистые, Cc - перисто-кучевые, Ac - высококучевые, As - высокослоистые, Sc - слоисто-кучевые, Ns - слоисто-дождевые, Cu - кучевые, Cb - кучево-дождевые. Подробнее классификацию облаков см. в Атласе облаков (PDF).
T - Температура воздуха - температура, измеренная на высоте 2 м над землей.
Td - Температура точки росы - температура, при понижении до которой содержащийся в воздухе водяной пар достигнет насыщения.
f - Относительная влажность воздуха - влажноcть воздуха, измеренная на высоте 2 м над землей.
Te - Эффективная температура - температура, которую ощущает одетый по сезону человек в тени. Характеристика душности погоды. При расчете учитывается влияние влажности воздуха и скорости ветра на теплоощущения человека.
Tes - Эффективная температура на солнце - температура, которую ощущает человек, с поправкой на солнечный нагрев. Характеристика знойности погоды. Зависит от высоты солнца над горизонтом, облачности и скорости ветра. Ночью, в пасмурную погоду, а также при ветре 12 м/с и более поправка равна нулю.
P - Атмосферное давление - приведенное к уровню моря атмосферное давление.
Po - Атмосферное давление - измеренное на уровне метеостанции атмосферное давление.
Tmin - Минимальная температура - минимум температуры воздуха на высоте 2 м над землей.
Tmax - Максимальная температура - максимум температуры воздуха на высоте 2 м над землей.
R - Количество осадков - Количество выпавших осадков за период времени, мм. При наведении курсора мыши на число - период времени, за который выпало указанное количество осадков.
R24 - Количество осадков - Количество выпавших осадков за 24 часа, мм.
S - Снежный покров - Высота снежного покрова, см. При наведении курсора мыши на число - состояние снежного покрова и степень покрытия местности в баллах.